When you browse on this site, cookies collect data to enhance your experience and personalize the content and advertising you see.
Visit our Privacy Policy to learn more. By continuing to use the site, you agree to this use of cookies and data.
  • In Hungary
  • List of Countries
  • For 7 days
  • Water Temperature
  • Weather Map
  • News
  • Weather Widgets
  • user-avatar
    Login

    Hourly Weather Oktyabr

    Today, 19 October, Saturday

    Time Temperature Precipitation Wind Pressure Humidity
    00:00 +16°C° 0 mm 1 mps 741 mmHg 67%
    01:00 +15°C° 0 mm 0 mps 741 mmHg 68%
    02:00 +15°C° 0 mm 0 mps 741 mmHg 68%
    03:00 +14°C° 0 mm 0 mps 741 mmHg 72%
    04:00 +14°C° 0.1 mm 0 mps 741 mmHg 72%
    05:00 +14°C° 0.1 mm 0 mps 741 mmHg 73%
    06:00 +15°C° 0.1 mm 1 mps 742 mmHg 73%
    07:00 +16°C° 0.1 mm 1 mps 742 mmHg 68%
    08:00 +18°C° 0.1 mm 1 mps 742 mmHg 63%
    09:00 +19°C° 0 mm 1 mps 743 mmHg 59%
    10:00 +20°C° 0 mm 2 mps 742 mmHg 54%
    11:00 +21°C° 0 mm 2 mps 742 mmHg 49%
    12:00 +23°C° 0 mm 2 mps 742 mmHg 44%
    13:00 +24°C° 0 mm 2 mps 742 mmHg 41%
    14:00 +24°C° 0 mm 2 mps 742 mmHg 39%
    15:00 +24°C° 0 mm 2 mps 742 mmHg 36%
    16:00 +23°C° 0 mm 2 mps 742 mmHg 41%
    17:00 +20°C° 0 mm 2 mps 742 mmHg 45%
    18:00 +19°C° 0 mm 2 mps 742 mmHg 49%
    19:00 +19°C° 0 mm 1 mps 742 mmHg 51%
    20:00 +18°C° 0 mm 1 mps 743 mmHg 54%
    21:00 +18°C° 0 mm 1 mps 743 mmHg 56%
    22:00 +16°C° 0 mm 1 mps 743 mmHg 58%
    23:00 +16°C° 0 mm 1 mps 743 mmHg 60%

    Tomorrow, 20 October, Sunday

    Time Temperature Precipitation Wind Pressure Humidity
    00:00 +16°C° 0 mm 1 mps 743 mmHg 62%
    01:00 +15°C° 0 mm 1 mps 743 mmHg 65%
    02:00 +15°C° 0 mm 1 mps 743 mmHg 67%
    03:00 +15°C° 0 mm 1 mps 743 mmHg 70%
    04:00 +14°C° 0 mm 1 mps 743 mmHg 72%
    05:00 +14°C° 0 mm 1 mps 743 mmHg 74%
    06:00 +14°C° 0 mm 2 mps 744 mmHg 76%
    07:00 +15°C° 0 mm 2 mps 744 mmHg 72%
    08:00 +16°C° 0 mm 3 mps 744 mmHg 68%
    09:00 +17°C° 0 mm 3 mps 744 mmHg 65%
    10:00 +19°C° 0 mm 3 mps 744 mmHg 59%
    11:00 +20°C° 0 mm 4 mps 744 mmHg 54%
    12:00 +21°C° 0 mm 5 mps 744 mmHg 49%
    13:00 +21°C° 0 mm 5 mps 744 mmHg 47%
    14:00 +22°C° 0 mm 5 mps 744 mmHg 46%
    15:00 +22°C° 0 mm 5 mps 744 mmHg 44%
    16:00 +20°C° 0 mm 5 mps 744 mmHg 47%
    17:00 +19°C° 0 mm 4 mps 744 mmHg 50%
    18:00 +18°C° 0 mm 4 mps 745 mmHg 53%
    19:00 +17°C° 0 mm 4 mps 745 mmHg 54%
    20:00 +17°C° 0 mm 4 mps 745 mmHg 55%
    21:00 +15°C° 0 mm 4 mps 745 mmHg 56%
    22:00 +14°C° 0 mm 4 mps 745 mmHg 57%
    23:00 +14°C° 0 mm 4 mps 745 mmHg 59%

    Day after tomorrow, 21 October, Monday

    Time Temperature Precipitation Wind Pressure Humidity
    00:00 +13°C° 0 mm 4 mps 745 mmHg 60%
    01:00 +13°C° 0 mm 4 mps 745 mmHg 62%
    02:00 +12°C° 0 mm 4 mps 745 mmHg 64%
    03:00 +12°C° 0 mm 4 mps 745 mmHg 65%
    04:00 +11°C° 0 mm 4 mps 745 mmHg 67%
    05:00 +11°C° 0 mm 4 mps 745 mmHg 68%
    06:00 +11°C° 0 mm 4 mps 745 mmHg 69%
    07:00 +12°C° 0 mm 4 mps 745 mmHg 65%
    08:00 +13°C° 0 mm 5 mps 745 mmHg 62%
    09:00 +14°C° 0 mm 6 mps 746 mmHg 58%
    10:00 +15°C° 0 mm 6 mps 745 mmHg 54%
    11:00 +17°C° 0 mm 6 mps 745 mmHg 51%
    12:00 +19°C° 0 mm 6 mps 745 mmHg 47%
    13:00 +19°C° 0 mm 6 mps 745 mmHg 48%
    14:00 +19°C° 0 mm 6 mps 745 mmHg 49%
    15:00 +20°C° 0 mm 6 mps 745 mmHg 50%
    16:00 +17°C° 0 mm 6 mps 745 mmHg 54%
    17:00 +16°C° 0 mm 5 mps 745 mmHg 59%
    18:00 +15°C° 0 mm 4 mps 745 mmHg 64%
    19:00 +14°C° 0 mm 5 mps 745 mmHg 66%
    20:00 +14°C° 0 mm 5 mps 745 mmHg 67%
    21:00 +13°C° 0 mm 5 mps 745 mmHg 69%
    22:00 +13°C° 0 mm 4 mps 744 mmHg 71%
    23:00 +12°C° 0 mm 4 mps 744 mmHg 74%

    22 October, Tuesday

    Time Temperature Precipitation Wind Pressure Humidity
    00:00 +11°C° 0 mm 4 mps 744 mmHg 76%
    01:00 +11°C° 0 mm 4 mps 744 mmHg 81%
    02:00 +10°C° 0 mm 3 mps 744 mmHg 85%
    03:00 +10°C° 0 mm 3 mps 744 mmHg 89%
    04:00 +9°C° 0 mm 3 mps 744 mmHg 91%
    05:00 +9°C° 0 mm 3 mps 744 mmHg 92%
    06:00 +9°C° 0 mm 3 mps 744 mmHg 94%
    07:00 +10°C° 0 mm 3 mps 745 mmHg 88%
    08:00 +11°C° 0 mm 3 mps 745 mmHg 81%
    09:00 +12°C° 0 mm 4 mps 745 mmHg 75%
    10:00 +14°C° 0 mm 4 mps 745 mmHg 67%
    11:00 +15°C° 0 mm 4 mps 745 mmHg 59%
    12:00 +17°C° 0 mm 5 mps 744 mmHg 52%
    13:00 +18°C° 0 mm 4 mps 744 mmHg 50%
    14:00 +19°C° 0 mm 4 mps 744 mmHg 48%
    15:00 +19°C° 0 mm 4 mps 744 mmHg 46%
    16:00 +17°C° 0 mm 4 mps 744 mmHg 50%
    17:00 +16°C° 0 mm 3 mps 744 mmHg 55%
    18:00 +14°C° 0 mm 3 mps 744 mmHg 59%
    19:00 +13°C° 0 mm 3 mps 745 mmHg 62%
    20:00 +13°C° 0 mm 3 mps 745 mmHg 64%
    21:00 +12°C° 0 mm 3 mps 745 mmHg 66%
    22:00 +12°C° 0 mm 3 mps 744 mmHg 68%
    23:00 +11°C° 0 mm 3 mps 744 mmHg 70%

    23 October, Wednesday

    Time Temperature Precipitation Wind Pressure Humidity
    00:00 +12°C° 0 mm 2 mps 744 mmHg 72%
    01:00 +10°C° 0 mm 2 mps 744 mmHg 74%
    02:00 +10°C° 0 mm 2 mps 744 mmHg 76%
    03:00 +10°C° 0 mm 2 mps 744 mmHg 78%
    04:00 +9°C° 0 mm 2 mps 745 mmHg 81%
    05:00 +9°C° 0 mm 2 mps 745 mmHg 84%
    06:00 +9°C° 0 mm 2 mps 745 mmHg 87%
    07:00 +10°C° 0 mm 2 mps 745 mmHg 80%
    08:00 +13°C° 0 mm 2 mps 745 mmHg 74%
    09:00 +13°C° 0 mm 3 mps 745 mmHg 68%
    10:00 +16°C° 0 mm 3 mps 745 mmHg 60%
    11:00 +17°C° 0 mm 4 mps 745 mmHg 52%
    12:00 +19°C° 0 mm 4 mps 745 mmHg 44%
    13:00 +19°C° 0 mm 4 mps 745 mmHg 42%
    14:00 +20°C° 0 mm 4 mps 745 mmHg 39%
    15:00 +20°C° 0 mm 4 mps 744 mmHg 37%
    16:00 +18°C° 0 mm 4 mps 744 mmHg 41%
    17:00 +17°C° 0 mm 3 mps 744 mmHg 44%
    18:00 +14°C° 0 mm 3 mps 744 mmHg 48%
    19:00 +14°C° 0 mm 3 mps 745 mmHg 51%
    20:00 +13°C° 0 mm 3 mps 745 mmHg 53%
    21:00 +13°C° 0 mm 3 mps 745 mmHg 56%
    22:00 +12°C° 0 mm 3 mps 745 mmHg 58%
    23:00 +12°C° 0 mm 3 mps 744 mmHg 60%

    24 October, Thursday

    Time Temperature Precipitation Wind Pressure Humidity
    00:00 +11°C° 0 mm 3 mps 744 mmHg 62%
    01:00 +12°C° 0 mm 2 mps 744 mmHg 64%
    02:00 +10°C° 0 mm 2 mps 744 mmHg 66%
    03:00 +10°C° 0 mm 2 mps 744 mmHg 68%
    04:00 +10°C° 0 mm 2 mps 744 mmHg 72%
    05:00 +9°C° 0 mm 2 mps 744 mmHg 75%
    06:00 +9°C° 0 mm 2 mps 744 mmHg 78%
    07:00 +11°C° 0 mm 3 mps 744 mmHg 72%
    08:00 +12°C° 0 mm 3 mps 744 mmHg 65%
    09:00 +13°C° 0 mm 4 mps 744 mmHg 59%
    10:00 +15°C° 0 mm 4 mps 744 mmHg 52%
    11:00 +16°C° 0 mm 5 mps 744 mmHg 45%
    12:00 +19°C° 0 mm 5 mps 744 mmHg 39%
    13:00 +19°C° 0 mm 5 mps 744 mmHg 39%
    14:00 +19°C° 0 mm 5 mps 744 mmHg 39%
    15:00 +19°C° 0 mm 5 mps 743 mmHg 39%
    16:00 +17°C° 0 mm 5 mps 743 mmHg 44%
    17:00 +15°C° 0 mm 4 mps 743 mmHg 49%
    18:00 +14°C° 0 mm 4 mps 743 mmHg 53%
    19:00 +13°C° 0 mm 4 mps 744 mmHg 56%
    20:00 +13°C° 0 mm 4 mps 744 mmHg 59%
    21:00 +12°C° 0 mm 3 mps 744 mmHg 62%
    22:00 +12°C° 0 mm 4 mps 743 mmHg 67%
    23:00 +11°C° 0 mm 4 mps 743 mmHg 72%
    Show more